Flag for Germany Weather past 2 weeks in Ansbach, Bavaria, Germany

Now
54 °F

Light rain. Overcast.


Feels Like: 53 °F
Forecast: 46 / 57 °F
Wind: 5 mph from Northwest

Location: Ansbach / Katterbach

Current Time: May 25, 2015 at 6:50:21 PM

Latest Report: May 25, 2015 at 5:58 PM


Visibility: N/A

Pressure: 29.95 "Hg

Humidity: 100%

Dew point: 54 °F

Location of AnsbachLocation

Historic Weather in Ansbach — Graph

°F

Ansbach temperature yesterday

Maximum temperature yesterday: 64 °F (at 12:58 PM)
Minimum temperature yesterday: 54 °F (at 5:58 AM)
Average temperature yesterday: 58 °F

Past Weeks' High & Low Weather Summary

 TemperatureHumidityPressure
High80 °F (May 12, 4:58 PM)100% (May 11, 1:58 AM)30.38 "Hg (May 11, 1:58 AM)
Low41 °F (May 21, 12:58 AM)31% (May 22, 4:58 PM)29.74 "Hg (May 19, 1:58 AM)
Average57 °F67%30.09 "Hg
* Reported May 10 6:58 PM — May 25 5:58 PM, Ansbach, Weather by CustomWeather, © 2015

Note: Actual official high and low records may vary slightly from our data, if they occured in-between our weather recording intervals... More about our weather records

Advertising

Ansbach weather history for previous 24 hours

 ConditionsComfort  
Time TempWeatherWind HumidityBarometerVisibility
5:58 PM
Mon, May 25
54 °FLight rain. Overcast.5 mph100%29.95 "HgN/A
5:04 PM54 °FRain. Fog.6 mph100%29.94 "Hg3 mi
4:58 PM54 °FHeavy rain. Fog.6 mph100%29.97 "Hg3 mi
3:58 PM53 °FLight rain. Partly sunny.6 mph100%29.97 "HgN/A
2:58 PM65 °FPartly sunny.6 mph57%29.93 "HgN/A
1:58 PM64 °FOvercast.3 mph56%29.93 "HgN/A
12:58 PM65 °FMostly cloudy.9 mph54%29.95 "HgN/A
11:58 AM64 °FPartly sunny.9 mph62%29.97 "HgN/A
10:58 AM63 °FOvercast.6 mph64%29.99 "HgN/A
9:58 AM59 °FOvercast.5 mph77%30.00 "HgN/A
8:58 AM56 °FOvercast.5 mph87%30.01 "HgN/A
7:58 AM54 °FOvercast.6 mph94%30.02 "HgN/A
6:58 AM52 °FOvercast.5 mph100%30.02 "HgN/A
5:58 AM53 °FOvercast.6 mph94%30.03 "HgN/A
4:58 AM52 °FOvercast.5 mph94%30.03 "HgN/A
3:58 AM52 °FOvercast.3 mph100%30.03 "HgN/A
2:58 AM54 °FOvercast.3 mph88%30.04 "HgN/A
1:58 AM54 °FOvercast.3 mph88%30.05 "HgN/A
12:58 AM55 °FOvercast.3 mph82%30.06 "HgN/A
11:58 PM
Sun, May 24
55 °FOvercast.3 mph79%30.08 "HgN/A
10:58 PM56 °FOvercast.5 mph76%30.08 "HgN/A
9:58 PM57 °FOvercast.2 mph77%30.08 "HgN/A
8:58 PM58 °FOvercast.3 mph77%30.08 "HgN/A
7:58 PM59 °FOvercast.3 mph77%30.08 "HgN/A
6:58 PM61 °FOvercast.5 mph68%30.08 "HgN/A
Weather by CustomWeather, © 2015

See weather overviewHow to use our weather pages